Location: Petruro
(41.0333°N, 14.7833°E)
Time: 09:58:13
(UTC+00:00)

Cosmos 1655 Rocket - Pass Details

Date: 20 June 2021
Orbit: 971 x 1005 km, 82.9° (Epoch: 03 August)

Event Time Altitude Azimuth Distance (km) Brightness Sun altitude
Exits shadow 01:32:14 13° 171° (S) 2,472 5.7 -16.8°
Maximum altitude 01:37:41 63° 93° (E) 1,082 4.4 -16.2°
Drops below altitude 10° 01:43:51 10° 14° (NNE) 2,733 7.4 -15.4°
Sets 01:46:23 0° 11° (N) 3,689 8.2 -15.1°
